Вернуться в каталог

STARLINK-11095

АктивенСвязьVLEO
NORAD 59720·PAYLOAD·🇺🇸 United States

Запущен May 10, 2024 с Vandenberg Space Force Base

Loading…

Ближайшие Пролёты (ближайшие 24 часа)

TLE

СвежийSource: CelesTrak SupGP

Эпоха: Sep 15, 2026, 02:27 UTC

1 59720C 24088N   26258.10256944  .00060779  00000+0  50050-3 0  2588
2 59720  53.1562 112.2697 0001073  88.3161 329.3384 15.69686439    13

Отслеживайте STARLINK-11095 в реальном времени с AllMySat

Download on the App Store